Year,Month,Day,Hour,Minute,Value (Times are PST for windspeed in km/hr)
2018,01,17,00,00,2.60
2018,01,17,00,01,0.20
2018,01,17,00,02,0.30
2018,01,17,00,03,3.20
2018,01,17,00,04,1.60
2018,01,17,00,05,2.20
2018,01,17,00,06,0.90
2018,01,17,00,07,0.10
2018,01,17,00,08,0.00
2018,01,17,00,09,3.00
2018,01,17,00,10,2.60
2018,01,17,00,11,2.30
2018,01,17,00,12,0.70
2018,01,17,00,13,1.30
2018,01,17,00,14,2.50
2018,01,17,00,15,0.30
2018,01,17,00,16,0.00
2018,01,17,00,17,0.00
2018,01,17,00,18,0.00
2018,01,17,00,19,0.00
2018,01,17,00,20,0.00
2018,01,17,00,21,2.80
2018,01,17,00,22,1.00
2018,01,17,00,23,1.60
2018,01,17,00,24,0.00
2018,01,17,00,25,4.30
2018,01,17,00,26,1.20
2018,01,17,00,27,0.20
2018,01,17,00,28,0.00
2018,01,17,00,29,0.00
2018,01,17,00,30,1.70
2018,01,17,00,31,3.40
2018,01,17,00,32,2.70
2018,01,17,00,33,1.80
2018,01,17,00,34,1.50
2018,01,17,00,35,0.50
2018,01,17,00,36,0.40
2018,01,17,00,37,0.00
2018,01,17,00,38,0.60
2018,01,17,00,39,0.00
2018,01,17,00,40,0.00
2018,01,17,00,41,0.10
2018,01,17,00,42,0.40
2018,01,17,00,43,0.50
2018,01,17,00,44,0.00
2018,01,17,00,45,0.00
2018,01,17,00,46,0.00
2018,01,17,00,47,2.10
2018,01,17,00,48,3.40
2018,01,17,00,49,5.40
2018,01,17,00,50,2.70
2018,01,17,00,51,1.20
2018,01,17,00,52,1.40
2018,01,17,00,53,1.30
2018,01,17,00,54,2.80
2018,01,17,00,55,3.30
2018,01,17,00,56,0.10
2018,01,17,00,57,0.00
2018,01,17,00,58,0.00
2018,01,17,00,59,0.00
2018,01,17,01,00,0.00
2018,01,17,01,01,0.00
2018,01,17,01,02,0.00
2018,01,17,01,03,0.00
2018,01,17,01,04,1.40
2018,01,17,01,05,2.00
2018,01,17,01,06,2.70
2018,01,17,01,07,0.20
2018,01,17,01,08,0.00
2018,01,17,01,09,0.00
2018,01,17,01,10,1.20
2018,01,17,01,11,0.70
2018,01,17,01,12,1.50
2018,01,17,01,13,2.50
2018,01,17,01,14,3.40
2018,01,17,01,15,0.20
2018,01,17,01,16,0.00
2018,01,17,01,17,0.00
2018,01,17,01,18,0.40
2018,01,17,01,19,3.00
2018,01,17,01,20,2.50
2018,01,17,01,21,0.70
2018,01,17,01,22,2.60
2018,01,17,01,23,2.00
2018,01,17,01,24,2.70
2018,01,17,01,25,0.60
2018,01,17,01,26,1.80
2018,01,17,01,27,3.00
2018,01,17,01,28,2.80
2018,01,17,01,29,4.80
2018,01,17,01,30,4.40
2018,01,17,01,31,0.90
2018,01,17,01,32,4.40
2018,01,17,01,33,1.90
2018,01,17,01,34,0.40
2018,01,17,01,35,1.40
2018,01,17,01,36,0.40
2018,01,17,01,37,0.20
2018,01,17,01,38,1.70
2018,01,17,01,39,1.60
2018,01,17,01,40,0.00
2018,01,17,01,41,0.00
2018,01,17,01,42,0.00
2018,01,17,01,43,1.10
2018,01,17,01,44,2.90
2018,01,17,01,45,4.40
2018,01,17,01,46,4.80
2018,01,17,01,47,2.40
2018,01,17,01,48,0.30
2018,01,17,01,49,0.00
2018,01,17,01,50,2.90
2018,01,17,01,51,0.20
2018,01,17,01,52,2.90
2018,01,17,01,53,3.50
2018,01,17,01,54,1.60
2018,01,17,01,55,0.90
2018,01,17,01,56,5.00
2018,01,17,01,57,4.70
2018,01,17,01,58,3.40
2018,01,17,01,59,0.90
2018,01,17,02,00,0.60
2018,01,17,02,01,0.30
2018,01,17,02,02,0.00
2018,01,17,02,03,0.00
2018,01,17,02,04,0.00
2018,01,17,02,05,0.00
2018,01,17,02,06,0.00
2018,01,17,02,07,0.00
2018,01,17,02,08,0.00
2018,01,17,02,09,4.70
2018,01,17,02,10,3.20
2018,01,17,02,11,0.90
2018,01,17,02,12,0.00
2018,01,17,02,13,0.00
2018,01,17,02,14,0.00
2018,01,17,02,15,0.00
2018,01,17,02,16,2.30
2018,01,17,02,17,1.70
2018,01,17,02,18,2.40
2018,01,17,02,19,1.90
2018,01,17,02,20,2.30
2018,01,17,02,21,1.70
2018,01,17,02,22,0.70
2018,01,17,02,23,0.50
2018,01,17,02,24,0.10
2018,01,17,02,25,0.00
2018,01,17,02,26,0.30
2018,01,17,02,27,1.60
2018,01,17,02,28,3.00
2018,01,17,02,29,2.90
2018,01,17,02,30,0.10
2018,01,17,02,31,0.10
2018,01,17,02,32,1.60
2018,01,17,02,33,2.50
2018,01,17,02,34,1.00
2018,01,17,02,35,0.00
2018,01,17,02,36,0.00
2018,01,17,02,37,0.10
2018,01,17,02,38,0.00
2018,01,17,02,39,0.00
2018,01,17,02,40,0.00
2018,01,17,02,41,0.00
2018,01,17,02,42,0.00
2018,01,17,02,43,0.00
2018,01,17,02,44,0.00
2018,01,17,02,45,0.00
2018,01,17,02,46,0.00
2018,01,17,02,47,0.00
2018,01,17,02,48,0.00
2018,01,17,02,49,0.00
2018,01,17,02,50,0.00
2018,01,17,02,51,0.00
2018,01,17,02,52,0.00
2018,01,17,02,53,1.30
2018,01,17,02,54,4.50
2018,01,17,02,55,6.10
2018,01,17,02,56,6.70
2018,01,17,02,57,4.70
2018,01,17,02,58,4.40
2018,01,17,02,59,2.80
2018,01,17,03,00,1.20
2018,01,17,03,01,1.80
2018,01,17,03,02,0.90
2018,01,17,03,03,0.00
2018,01,17,03,04,0.00
2018,01,17,03,05,2.40
2018,01,17,03,06,6.00
2018,01,17,03,07,5.90
2018,01,17,03,08,5.30
2018,01,17,03,09,3.50
2018,01,17,03,10,3.80
2018,01,17,03,11,6.20
2018,01,17,03,12,4.90
2018,01,17,03,13,2.70
2018,01,17,03,14,0.70
2018,01,17,03,15,0.70
2018,01,17,03,16,1.70
2018,01,17,03,17,1.20
2018,01,17,03,18,2.20
2018,01,17,03,19,2.60
2018,01,17,03,20,2.90
2018,01,17,03,21,1.60
2018,01,17,03,22,3.40
2018,01,17,03,23,2.60
2018,01,17,03,24,2.00
2018,01,17,03,25,1.30
2018,01,17,03,26,0.00
2018,01,17,03,27,0.00
2018,01,17,03,28,0.40
2018,01,17,03,29,1.70
2018,01,17,03,30,3.70
2018,01,17,03,31,1.40
2018,01,17,03,32,0.10
2018,01,17,03,33,2.30
2018,01,17,03,34,0.40
2018,01,17,03,35,3.80
2018,01,17,03,36,5.40
2018,01,17,03,37,5.20
2018,01,17,03,38,4.50
2018,01,17,03,39,4.90
2018,01,17,03,40,4.20
2018,01,17,03,41,1.60
2018,01,17,03,42,2.80
2018,01,17,03,43,2.00
2018,01,17,03,44,0.00
2018,01,17,03,45,0.10
2018,01,17,03,46,2.30
2018,01,17,03,47,0.80
2018,01,17,03,48,1.40
2018,01,17,03,49,3.20
2018,01,17,03,50,3.20
2018,01,17,03,51,3.20
2018,01,17,03,52,0.70
2018,01,17,03,53,0.90
2018,01,17,03,54,1.20
2018,01,17,03,55,2.80
2018,01,17,03,56,0.50
2018,01,17,03,57,0.00
2018,01,17,03,58,0.00
2018,01,17,03,59,0.00
2018,01,17,04,00,0.00
2018,01,17,04,01,0.00
2018,01,17,04,02,0.00
2018,01,17,04,03,0.60
2018,01,17,04,04,1.90
2018,01,17,04,05,1.20
2018,01,17,04,06,0.50
2018,01,17,04,07,1.20
2018,01,17,04,08,0.40
2018,01,17,04,09,5.60
2018,01,17,04,10,3.20
2018,01,17,04,11,5.30
2018,01,17,04,12,1.90
2018,01,17,04,13,1.60
2018,01,17,04,14,0.60
2018,01,17,04,15,1.30
2018,01,17,04,16,0.70
2018,01,17,04,17,4.20
2018,01,17,04,18,0.90
2018,01,17,04,19,1.10
2018,01,17,04,20,3.10
2018,01,17,04,21,1.30
2018,01,17,04,22,0.10
2018,01,17,04,23,2.10
2018,01,17,04,24,2.90
2018,01,17,04,25,2.00
2018,01,17,04,26,5.80
2018,01,17,04,27,2.60
2018,01,17,04,28,0.60
2018,01,17,04,29,1.70
2018,01,17,04,30,1.10
2018,01,17,04,31,6.00
2018,01,17,04,32,2.70
2018,01,17,04,33,1.10
2018,01,17,04,34,2.80
2018,01,17,04,35,3.40
2018,01,17,04,36,4.80
2018,01,17,04,37,6.60
2018,01,17,04,38,5.20
2018,01,17,04,39,4.40
2018,01,17,04,40,0.30
2018,01,17,04,41,3.50
2018,01,17,04,42,2.40
2018,01,17,04,43,2.90
2018,01,17,04,44,7.30
2018,01,17,04,45,2.80
2018,01,17,04,46,4.90
2018,01,17,04,47,2.10
2018,01,17,04,48,2.50
2018,01,17,04,49,2.30
2018,01,17,04,50,2.90
2018,01,17,04,51,8.00
2018,01,17,04,52,4.60
2018,01,17,04,53,1.80
2018,01,17,04,54,5.60
2018,01,17,04,55,12.30
2018,01,17,04,56,9.30
2018,01,17,04,57,8.10
2018,01,17,04,58,2.70
2018,01,17,04,59,2.20
2018,01,17,05,00,0.60
2018,01,17,05,01,5.30
2018,01,17,05,02,7.80
2018,01,17,05,03,4.50
2018,01,17,05,04,4.90
2018,01,17,05,05,4.00
2018,01,17,05,06,2.20
2018,01,17,05,07,5.20
2018,01,17,05,08,3.50
2018,01,17,05,09,0.90
2018,01,17,05,10,2.80
2018,01,17,05,11,3.70
2018,01,17,05,12,4.10
2018,01,17,05,13,0.50
2018,01,17,05,14,1.70
2018,01,17,05,15,1.00
2018,01,17,05,16,6.10
2018,01,17,05,17,7.10
2018,01,17,05,18,7.40
2018,01,17,05,19,4.30
2018,01,17,05,20,5.90
2018,01,17,05,21,5.20
2018,01,17,05,22,2.80
2018,01,17,05,23,5.60
2018,01,17,05,24,6.30
2018,01,17,05,25,5.30
2018,01,17,05,26,4.00
2018,01,17,05,27,4.80
2018,01,17,05,28,3.30
2018,01,17,05,29,2.10
2018,01,17,05,30,2.50
2018,01,17,05,31,3.90
2018,01,17,05,32,6.80
2018,01,17,05,33,13.50
2018,01,17,05,34,12.20
2018,01,17,05,35,10.10
2018,01,17,05,36,11.90
2018,01,17,05,37,11.70
2018,01,17,05,38,10.30
2018,01,17,05,39,14.30
2018,01,17,05,40,13.60
2018,01,17,05,41,9.40
2018,01,17,05,42,6.40
2018,01,17,05,43,4.60
2018,01,17,05,44,7.10
2018,01,17,05,45,5.60
2018,01,17,05,46,1.70
2018,01,17,05,47,3.80
2018,01,17,05,48,4.60
2018,01,17,05,49,6.80
2018,01,17,05,50,7.00
2018,01,17,05,51,6.70
2018,01,17,05,52,9.00
2018,01,17,05,53,6.90
2018,01,17,05,54,5.90
2018,01,17,05,55,13.70
2018,01,17,05,56,10.30
2018,01,17,05,57,7.30
2018,01,17,05,58,7.40
2018,01,17,05,59,6.60
2018,01,17,06,00,6.80
2018,01,17,06,01,6.60
2018,01,17,06,02,6.00
2018,01,17,06,03,7.10
2018,01,17,06,04,8.00
2018,01,17,06,05,8.70
2018,01,17,06,06,7.30
2018,01,17,06,07,3.80
2018,01,17,06,08,6.80
2018,01,17,06,09,8.20
2018,01,17,06,10,5.30
2018,01,17,06,11,2.20
2018,01,17,06,12,1.70
2018,01,17,06,13,2.80
2018,01,17,06,14,4.90
2018,01,17,06,15,3.10
2018,01,17,06,16,8.10
2018,01,17,06,17,5.00
2018,01,17,06,18,6.40
2018,01,17,06,19,1.60
2018,01,17,06,20,0.20
2018,01,17,06,21,4.50
2018,01,17,06,22,8.10
2018,01,17,06,23,7.60
2018,01,17,06,24,8.10
2018,01,17,06,25,9.20
2018,01,17,06,26,7.90
2018,01,17,06,27,5.40
2018,01,17,06,28,7.70
2018,01,17,06,29,10.50
2018,01,17,06,30,13.30
2018,01,17,06,31,11.90
2018,01,17,06,32,13.10
2018,01,17,06,33,10.10
2018,01,17,06,34,8.10
2018,01,17,06,35,8.90
2018,01,17,06,36,7.40
2018,01,17,06,37,7.60
2018,01,17,06,38,6.20
2018,01,17,06,39,7.80
2018,01,17,06,40,8.30
2018,01,17,06,41,9.90
2018,01,17,06,42,8.60
2018,01,17,06,43,6.40
2018,01,17,06,44,7.70
2018,01,17,06,45,6.10
2018,01,17,06,46,10.90
2018,01,17,06,47,16.60
2018,01,17,06,48,12.90
2018,01,17,06,49,4.00
2018,01,17,06,50,7.50
2018,01,17,06,51,14.00
2018,01,17,06,52,13.90
2018,01,17,06,53,13.60
2018,01,17,06,54,16.70
2018,01,17,06,55,13.00
2018,01,17,06,56,5.50
2018,01,17,06,57,6.70
2018,01,17,06,58,6.40
2018,01,17,06,59,11.80
2018,01,17,07,00,14.30
2018,01,17,07,01,18.80
2018,01,17,07,02,12.70
2018,01,17,07,03,4.60
2018,01,17,07,04,5.10
2018,01,17,07,05,13.50
2018,01,17,07,06,12.20
2018,01,17,07,07,9.70
2018,01,17,07,08,11.00
2018,01,17,07,09,10.50
2018,01,17,07,10,16.10
2018,01,17,07,11,11.70
2018,01,17,07,12,6.80
2018,01,17,07,13,6.00
2018,01,17,07,14,6.70
2018,01,17,07,15,9.40
2018,01,17,07,16,12.50
2018,01,17,07,17,13.20
2018,01,17,07,18,8.20
2018,01,17,07,19,10.40
2018,01,17,07,20,11.00
2018,01,17,07,21,13.20
2018,01,17,07,22,5.60
2018,01,17,07,23,6.10
2018,01,17,07,24,11.90
2018,01,17,07,25,14.90
2018,01,17,07,26,9.10
2018,01,17,07,27,10.30
2018,01,17,07,28,16.80
2018,01,17,07,29,12.10
2018,01,17,07,30,12.20
2018,01,17,07,31,11.20
2018,01,17,07,32,3.60
2018,01,17,07,33,9.60
2018,01,17,07,34,14.80
2018,01,17,07,35,20.50
2018,01,17,07,36,19.10
2018,01,17,07,37,14.30
2018,01,17,07,38,7.80
2018,01,17,07,39,3.40
2018,01,17,07,40,9.70
2018,01,17,07,41,5.00
2018,01,17,07,42,11.40
2018,01,17,07,43,15.00
2018,01,17,07,44,18.70
2018,01,17,07,45,17.60
2018,01,17,07,46,11.60
2018,01,17,07,47,14.80
2018,01,17,07,48,13.50
2018,01,17,07,49,9.30
2018,01,17,07,50,5.60
2018,01,17,07,51,8.40
2018,01,17,07,52,13.90
2018,01,17,07,53,8.00
2018,01,17,07,54,2.20
2018,01,17,07,55,3.20
2018,01,17,07,56,8.90
2018,01,17,07,57,15.90
2018,01,17,07,58,9.90
2018,01,17,07,59,5.50
2018,01,17,08,00,4.00
2018,01,17,08,01,5.20
2018,01,17,08,02,7.60
2018,01,17,08,03,2.60
2018,01,17,08,04,5.10
2018,01,17,08,05,9.30
2018,01,17,08,06,11.50
2018,01,17,08,07,6.70
2018,01,17,08,08,6.10
2018,01,17,08,09,13.20
2018,01,17,08,10,14.30
2018,01,17,08,11,17.00
2018,01,17,08,12,12.90
2018,01,17,08,13,6.70
2018,01,17,08,14,9.20
2018,01,17,08,15,14.50
2018,01,17,08,16,11.90
2018,01,17,08,17,6.80
2018,01,17,08,18,2.20
2018,01,17,08,19,1.80
2018,01,17,08,20,4.00
2018,01,17,08,21,6.40
2018,01,17,08,22,6.00
2018,01,17,08,23,4.00
2018,01,17,08,24,2.40
2018,01,17,08,25,1.40
2018,01,17,08,26,8.20
2018,01,17,08,27,5.90
2018,01,17,08,28,5.90
2018,01,17,08,29,13.30
2018,01,17,08,30,10.10
2018,01,17,08,31,5.80
2018,01,17,08,32,11.00
2018,01,17,08,33,13.00
2018,01,17,08,34,9.80
2018,01,17,08,35,5.80
2018,01,17,08,36,8.10
2018,01,17,08,37,9.50
2018,01,17,08,38,10.20
2018,01,17,08,39,13.80
2018,01,17,08,40,7.90
2018,01,17,08,41,5.80
2018,01,17,08,42,6.60
2018,01,17,08,43,8.70
2018,01,17,08,44,10.30
2018,01,17,08,45,7.70
2018,01,17,08,46,9.20
2018,01,17,08,47,11.50
2018,01,17,08,48,12.80
2018,01,17,08,49,5.30
2018,01,17,08,50,2.70
2018,01,17,08,51,5.90
2018,01,17,08,52,11.90
2018,01,17,08,53,9.80
2018,01,17,08,54,11.20
2018,01,17,08,55,12.40
2018,01,17,08,56,13.50
2018,01,17,08,57,16.80
2018,01,17,08,58,18.30
2018,01,17,08,59,12.40
2018,01,17,09,00,14.00
2018,01,17,09,01,11.70
2018,01,17,09,02,9.00
2018,01,17,09,03,11.00
2018,01,17,09,04,15.30
2018,01,17,09,05,12.40
2018,01,17,09,06,9.80
2018,01,17,09,07,7.80
2018,01,17,09,08,5.90
2018,01,17,09,09,5.40
2018,01,17,09,10,6.80
2018,01,17,09,11,4.70
2018,01,17,09,12,9.20
2018,01,17,09,13,9.70
2018,01,17,09,14,12.00
2018,01,17,09,15,13.80
2018,01,17,09,16,14.90
2018,01,17,09,17,7.60
2018,01,17,09,18,6.30
2018,01,17,09,19,5.30
2018,01,17,09,20,3.00
2018,01,17,09,21,7.90
2018,01,17,09,22,8.80
2018,01,17,09,23,5.40
2018,01,17,09,24,3.10
2018,01,17,09,25,3.50
2018,01,17,09,26,0.60
2018,01,17,09,27,2.60
2018,01,17,09,28,6.90
2018,01,17,09,29,5.30
2018,01,17,09,30,3.00
2018,01,17,09,31,7.30
2018,01,17,09,32,4.80
2018,01,17,09,33,4.30
2018,01,17,09,34,2.90
2018,01,17,09,35,7.20
2018,01,17,09,36,3.70
2018,01,17,09,37,1.00
2018,01,17,09,38,2.50
2018,01,17,09,39,3.80
2018,01,17,09,40,10.90
2018,01,17,09,41,9.00
2018,01,17,09,42,6.90
2018,01,17,09,43,9.50
2018,01,17,09,44,1.40
2018,01,17,09,45,1.60
2018,01,17,09,46,10.90
2018,01,17,09,47,11.20
2018,01,17,09,48,13.00
2018,01,17,09,49,15.90
2018,01,17,09,50,15.50
2018,01,17,09,51,7.70
2018,01,17,09,52,11.30
2018,01,17,09,53,15.20
2018,01,17,09,54,8.80
2018,01,17,09,55,5.90
2018,01,17,09,56,9.10
2018,01,17,09,57,5.60
2018,01,17,09,58,5.60
2018,01,17,09,59,7.80
2018,01,17,10,00,5.90
2018,01,17,10,01,9.80
2018,01,17,10,02,12.70
2018,01,17,10,03,12.90
2018,01,17,10,04,11.30
2018,01,17,10,05,11.70
2018,01,17,10,06,17.10
2018,01,17,10,07,14.20
2018,01,17,10,08,13.80
2018,01,17,10,09,16.90
2018,01,17,10,10,16.40
2018,01,17,10,11,14.40
2018,01,17,10,12,11.70
2018,01,17,10,13,17.60
2018,01,17,10,14,12.90
2018,01,17,10,15,9.70
2018,01,17,10,16,12.50
2018,01,17,10,17,17.10
2018,01,17,10,18,13.30
2018,01,17,10,19,3.90
2018,01,17,10,20,14.10
2018,01,17,10,21,12.30
2018,01,17,10,22,8.60
2018,01,17,10,23,13.00
2018,01,17,10,24,14.60
2018,01,17,10,25,17.00
2018,01,17,10,26,14.90
2018,01,17,10,27,7.80
2018,01,17,10,28,10.00
2018,01,17,10,29,15.20
2018,01,17,10,30,10.40
2018,01,17,10,31,2.60
2018,01,17,10,32,6.00
2018,01,17,10,33,3.80
2018,01,17,10,34,6.90
2018,01,17,10,35,9.30
2018,01,17,10,36,6.40
2018,01,17,10,37,11.00
2018,01,17,10,38,5.90
2018,01,17,10,39,9.00
2018,01,17,10,40,9.80
2018,01,17,10,41,6.40
2018,01,17,10,42,7.30
2018,01,17,10,43,9.00
2018,01,17,10,44,12.50
2018,01,17,10,45,8.50
2018,01,17,10,46,9.70
2018,01,17,10,47,6.40
2018,01,17,10,48,5.30
2018,01,17,10,49,5.10
2018,01,17,10,50,7.00
2018,01,17,10,51,3.00
2018,01,17,10,52,5.00
2018,01,17,10,53,5.60
2018,01,17,10,54,7.70
2018,01,17,10,55,5.70
2018,01,17,10,56,7.00
2018,01,17,10,57,4.20
2018,01,17,10,58,3.40
2018,01,17,10,59,6.00
2018,01,17,11,00,3.20
2018,01,17,11,01,10.30
2018,01,17,11,02,9.90
2018,01,17,11,03,14.80
2018,01,17,11,04,11.30
2018,01,17,11,05,6.20
2018,01,17,11,06,5.70
2018,01,17,11,07,6.00
2018,01,17,11,08,5.10
2018,01,17,11,09,5.60
2018,01,17,11,10,10.40
2018,01,17,11,11,10.30
2018,01,17,11,12,5.60
2018,01,17,11,13,13.10
2018,01,17,11,14,9.90
2018,01,17,11,15,20.00
2018,01,17,11,16,18.40
2018,01,17,11,17,14.60
2018,01,17,11,18,10.10
2018,01,17,11,19,10.00
2018,01,17,11,20,11.20
2018,01,17,11,21,13.40
2018,01,17,11,22,12.40
2018,01,17,11,23,7.20
2018,01,17,11,24,5.50
2018,01,17,11,25,8.10
2018,01,17,11,26,5.60
2018,01,17,11,27,7.20
2018,01,17,11,28,6.00
2018,01,17,11,29,3.70
2018,01,17,11,30,9.10
2018,01,17,11,31,15.60
2018,01,17,11,32,9.70
2018,01,17,11,33,12.50
2018,01,17,11,34,10.20
2018,01,17,11,35,12.40
2018,01,17,11,36,10.10
2018,01,17,11,37,7.30
2018,01,17,11,38,5.70
2018,01,17,11,39,7.00
2018,01,17,11,40,5.00
2018,01,17,11,41,11.70
2018,01,17,11,42,8.40
2018,01,17,11,43,6.00
2018,01,17,11,44,7.00
2018,01,17,11,45,4.50
2018,01,17,11,46,6.60
2018,01,17,11,47,3.70
2018,01,17,11,48,3.40
2018,01,17,11,49,15.10
2018,01,17,11,50,10.40
2018,01,17,11,51,9.00
2018,01,17,11,52,5.60
2018,01,17,11,53,7.50
2018,01,17,11,54,8.60
2018,01,17,11,55,6.40
2018,01,17,11,56,8.80
2018,01,17,11,57,10.30
2018,01,17,11,58,12.30
2018,01,17,11,59,18.40
2018,01,17,12,00,10.80
2018,01,17,12,01,10.60
2018,01,17,12,02,8.60
2018,01,17,12,03,4.60
2018,01,17,12,04,8.40
2018,01,17,12,05,5.50
2018,01,17,12,06,2.10
2018,01,17,12,07,2.50
2018,01,17,12,08,2.30
2018,01,17,12,09,7.70
2018,01,17,12,10,7.40
2018,01,17,12,11,4.60
2018,01,17,12,12,5.90
2018,01,17,12,13,4.30
2018,01,17,12,14,6.00
2018,01,17,12,15,10.40
2018,01,17,12,16,14.30
2018,01,17,12,17,16.30
2018,01,17,12,18,14.00
2018,01,17,12,19,12.70
2018,01,17,12,20,15.20
2018,01,17,12,21,25.50
2018,01,17,12,22,18.60
2018,01,17,12,23,17.30
2018,01,17,12,24,16.30
2018,01,17,12,25,6.40
2018,01,17,12,26,7.90
2018,01,17,12,27,9.80
2018,01,17,12,28,8.80
2018,01,17,12,29,5.10
2018,01,17,12,30,3.90
2018,01,17,12,31,6.30
2018,01,17,12,32,4.20
2018,01,17,12,33,3.30
2018,01,17,12,34,9.30
2018,01,17,12,35,8.60
2018,01,17,12,36,5.90
2018,01,17,12,37,11.40
2018,01,17,12,38,13.00
2018,01,17,12,39,9.90
2018,01,17,12,40,17.80
2018,01,17,12,41,12.30
2018,01,17,12,42,10.00
2018,01,17,12,43,15.80
2018,01,17,12,44,15.30
2018,01,17,12,45,8.10
2018,01,17,12,46,10.80
2018,01,17,12,47,19.50
2018,01,17,12,48,14.50
2018,01,17,12,49,18.30
2018,01,17,12,50,15.10
2018,01,17,12,51,13.20
2018,01,17,12,52,8.70
2018,01,17,12,53,15.70
2018,01,17,12,54,14.30
2018,01,17,12,55,9.40
2018,01,17,12,56,19.80
2018,01,17,12,57,24.30
2018,01,17,12,58,18.00
2018,01,17,12,59,12.10
2018,01,17,13,00,23.40
2018,01,17,13,01,31.50
2018,01,17,13,02,33.90
2018,01,17,13,03,20.30
2018,01,17,13,04,19.50
2018,01,17,13,05,31.70
2018,01,17,13,06,26.60
2018,01,17,13,07,29.00
2018,01,17,13,08,34.80
2018,01,17,13,09,29.20
2018,01,17,13,10,26.20
2018,01,17,13,11,43.00
2018,01,17,13,12,28.70
2018,01,17,13,13,20.40
2018,01,17,13,14,20.80
2018,01,17,13,15,18.50
2018,01,17,13,16,20.30
2018,01,17,13,17,23.10
2018,01,17,13,18,30.60
2018,01,17,13,19,26.00
2018,01,17,13,20,32.60
2018,01,17,13,21,29.10
2018,01,17,13,22,24.10
2018,01,17,13,23,17.50
2018,01,17,13,24,25.90
2018,01,17,13,25,26.60
2018,01,17,13,26,12.60
2018,01,17,13,27,19.90
2018,01,17,13,28,19.30
2018,01,17,13,29,27.00
2018,01,17,13,30,23.00
2018,01,17,13,31,22.30
2018,01,17,13,32,12.80
2018,01,17,13,33,32.40
2018,01,17,13,34,29.60
2018,01,17,13,35,21.80
2018,01,17,13,36,10.10
2018,01,17,13,37,17.40
2018,01,17,13,38,18.60
2018,01,17,13,39,18.20
2018,01,17,13,40,15.60
2018,01,17,13,41,30.50
2018,01,17,13,42,30.40
2018,01,17,13,43,25.20
2018,01,17,13,44,21.80
2018,01,17,13,45,25.40
2018,01,17,13,46,17.90
2018,01,17,13,47,20.90
2018,01,17,13,48,19.10
2018,01,17,13,49,15.20
2018,01,17,13,50,15.50
2018,01,17,13,51,27.60
2018,01,17,13,52,25.50
2018,01,17,13,53,28.50
2018,01,17,13,54,23.30
2018,01,17,13,55,30.70
2018,01,17,13,56,23.10
2018,01,17,13,57,28.00
2018,01,17,13,58,21.70
2018,01,17,13,59,19.90
2018,01,17,14,00,18.60
2018,01,17,14,01,21.10
2018,01,17,14,02,24.20
2018,01,17,14,03,18.90
2018,01,17,14,04,22.40
2018,01,17,14,05,23.20
2018,01,17,14,06,24.90
2018,01,17,14,07,17.70
2018,01,17,14,08,10.70
2018,01,17,14,09,14.90
2018,01,17,14,10,28.00
2018,01,17,14,11,15.60
2018,01,17,14,12,11.30
2018,01,17,14,13,10.60
2018,01,17,14,14,18.10
2018,01,17,14,15,22.10
2018,01,17,14,16,16.10
2018,01,17,14,17,15.30
2018,01,17,14,18,13.60
2018,01,17,14,19,19.10
2018,01,17,14,20,18.20
2018,01,17,14,21,21.80
2018,01,17,14,22,16.60
2018,01,17,14,23,9.70
2018,01,17,14,24,7.80
2018,01,17,14,25,16.50
2018,01,17,14,26,16.20
2018,01,17,14,27,13.70
2018,01,17,14,28,11.70
2018,01,17,14,29,12.00
2018,01,17,14,30,14.70
2018,01,17,14,31,13.50
2018,01,17,14,32,19.30
2018,01,17,14,33,19.30
2018,01,17,14,34,15.80
2018,01,17,14,35,18.60
2018,01,17,14,36,17.00
2018,01,17,14,37,18.20
2018,01,17,14,38,15.40
2018,01,17,14,39,19.10
2018,01,17,14,40,23.10
2018,01,17,14,41,21.70
2018,01,17,14,42,21.50
2018,01,17,14,43,19.30
2018,01,17,14,44,16.80
2018,01,17,14,45,30.60
2018,01,17,14,46,22.30
2018,01,17,14,47,23.10
2018,01,17,14,48,22.50
2018,01,17,14,49,11.40
2018,01,17,14,50,14.20
2018,01,17,14,51,17.60
2018,01,17,14,52,14.90
2018,01,17,14,53,16.20
2018,01,17,14,54,9.40
2018,01,17,14,55,16.30
2018,01,17,14,56,12.80
2018,01,17,14,57,11.80
2018,01,17,14,58,11.30
2018,01,17,14,59,11.40
2018,01,17,15,00,13.60
2018,01,17,15,01,21.40
2018,01,17,15,02,15.80
2018,01,17,15,03,23.10
2018,01,17,15,04,20.20
2018,01,17,15,05,20.20
2018,01,17,15,06,17.40
2018,01,17,15,07,25.50
2018,01,17,15,08,25.60
2018,01,17,15,09,19.30
2018,01,17,15,10,15.60
2018,01,17,15,11,14.80
2018,01,17,15,12,22.90
2018,01,17,15,13,30.90
2018,01,17,15,14,17.50
2018,01,17,15,15,21.50
2018,01,17,15,16,18.80
2018,01,17,15,17,36.10
2018,01,17,15,18,20.30
2018,01,17,15,19,26.40
2018,01,17,15,20,31.00
2018,01,17,15,21,27.20
2018,01,17,15,22,15.40
2018,01,17,15,23,15.70
2018,01,17,15,24,12.00
2018,01,17,15,25,19.50
2018,01,17,15,26,20.80
2018,01,17,15,27,24.50
2018,01,17,15,28,10.90
2018,01,17,15,29,22.50
2018,01,17,15,30,28.50
2018,01,17,15,31,19.40
2018,01,17,15,32,26.00
2018,01,17,15,33,20.40
2018,01,17,15,34,22.60
2018,01,17,15,35,12.20
2018,01,17,15,36,21.80
2018,01,17,15,37,15.90
2018,01,17,15,38,12.70
2018,01,17,15,39,13.90
2018,01,17,15,40,11.40
2018,01,17,15,41,10.90
2018,01,17,15,42,12.50
2018,01,17,15,43,17.00
2018,01,17,15,44,15.10
2018,01,17,15,45,7.60
2018,01,17,15,46,12.50
2018,01,17,15,47,22.40
2018,01,17,15,48,13.20
2018,01,17,15,49,15.60
2018,01,17,15,50,17.00
2018,01,17,15,51,21.90
2018,01,17,15,52,23.60
2018,01,17,15,53,19.70
2018,01,17,15,54,26.80
2018,01,17,15,55,18.50
2018,01,17,15,56,26.40
2018,01,17,15,57,19.20
2018,01,17,15,58,12.00
2018,01,17,15,59,14.00
2018,01,17,16,00,14.90
2018,01,17,16,01,15.20
2018,01,17,16,02,13.00
2018,01,17,16,03,33.30
2018,01,17,16,04,24.50
2018,01,17,16,05,19.30
2018,01,17,16,06,15.00
2018,01,17,16,07,12.30
2018,01,17,16,08,13.40
2018,01,17,16,09,16.00
2018,01,17,16,10,15.30
2018,01,17,16,11,14.70
2018,01,17,16,12,11.30
2018,01,17,16,13,14.70
2018,01,17,16,14,11.40
2018,01,17,16,15,10.90
2018,01,17,16,16,9.10
2018,01,17,16,17,14.50
2018,01,17,16,18,15.60
2018,01,17,16,19,13.40
2018,01,17,16,20,8.70
2018,01,17,16,21,10.90
2018,01,17,16,22,15.50
2018,01,17,16,23,11.20
2018,01,17,16,24,10.10
2018,01,17,16,25,10.20
2018,01,17,16,26,19.80
2018,01,17,16,27,22.90
2018,01,17,16,28,14.90
2018,01,17,16,29,15.50
2018,01,17,16,30,19.40
2018,01,17,16,31,18.60
2018,01,17,16,32,17.80
2018,01,17,16,33,23.40
2018,01,17,16,34,23.50
2018,01,17,16,35,20.80
2018,01,17,16,36,16.20
2018,01,17,16,37,19.30
2018,01,17,16,38,25.70
2018,01,17,16,39,22.60
2018,01,17,16,40,14.00
2018,01,17,16,41,25.90
2018,01,17,16,42,19.30
2018,01,17,16,43,20.80
2018,01,17,16,44,14.90
2018,01,17,16,45,20.50
2018,01,17,16,46,14.70
2018,01,17,16,47,14.00
2018,01,17,16,48,9.70
2018,01,17,16,49,17.60
2018,01,17,16,50,19.10
2018,01,17,16,51,18.40
2018,01,17,16,52,25.70
2018,01,17,16,53,15.30
2018,01,17,16,54,16.70
2018,01,17,16,55,17.40
2018,01,17,16,56,20.60
2018,01,17,16,57,25.60
2018,01,17,16,58,19.30
2018,01,17,16,59,21.20
2018,01,17,17,00,17.10
2018,01,17,17,01,17.90
2018,01,17,17,02,29.60
2018,01,17,17,03,21.40
2018,01,17,17,04,15.40
2018,01,17,17,05,14.90
2018,01,17,17,06,18.70
2018,01,17,17,07,19.00
2018,01,17,17,08,22.40
2018,01,17,17,09,31.30
2018,01,17,17,10,27.80
2018,01,17,17,11,36.70
2018,01,17,17,12,17.50
2018,01,17,17,13,16.00
2018,01,17,17,14,16.30
2018,01,17,17,15,21.10
2018,01,17,17,16,18.30
2018,01,17,17,17,10.50
2018,01,17,17,18,21.80
2018,01,17,17,19,19.00
2018,01,17,17,20,24.60
2018,01,17,17,21,23.20
2018,01,17,17,22,20.70
2018,01,17,17,23,22.20
2018,01,17,17,24,23.40
2018,01,17,17,25,29.80
2018,01,17,17,26,29.00
2018,01,17,17,27,35.40
2018,01,17,17,28,30.50
2018,01,17,17,29,21.10
2018,01,17,17,30,20.90
2018,01,17,17,31,21.00
2018,01,17,17,32,16.80
2018,01,17,17,33,11.60
2018,01,17,17,34,22.00
2018,01,17,17,35,30.30
2018,01,17,17,36,18.10
2018,01,17,17,37,22.00
2018,01,17,17,38,27.50
2018,01,17,17,39,18.60
2018,01,17,17,40,13.20
2018,01,17,17,41,26.90
2018,01,17,17,42,13.80
2018,01,17,17,43,26.00
2018,01,17,17,44,24.50
2018,01,17,17,45,16.30